Regional Weather Roundup
Issued by NWS Portland, ME

Current Version | Previous Version | Text Only | Print | Product List | Glossary Off
Versions: 1 2 3 4 5 6 7 8 9 10 11 12 13 14 15 16 17 18 19 20 21 22 23 24 25 26 27 28 29 30 31 32 33 34 35 36 37 38 39 40 41 42 43 44 45 46 47 48 49 50
000 ASUS41 KGYX 162305 RWRGYX WEATHER ROUNDUP FOR MAINE AND NEW HAMPSHIRE NATIONAL WEATHER SERVICE GRAY ME 600 PM EST SUN DEC 16 2018 MEZ002-005-006-010-012-015-018-020-021-024-026-027-029-170000- MAINE CITY SKY/WX TMP DP RH WIND PRES REMARKS PORTLAND FAIR 33 27 78 VRB6 30.03S SANFORD CLOUDY 35 28 75 NE10 30.00F BAR HARBOR FAIR 34 29 82 NE6 30.05F WISCASSET FAIR 36 30 79 NE3 30.04F ROCKLAND FAIR 37 31 78 NE12 30.03F FRYEBURG FAIR 30 24 78 CALM 30.02F LEWISTONAUBURN FAIR 35 27 72 NE9 30.02F AUGUSTA FAIR 33 26 75 N10 30.03F WATERVILLE FAIR 33 26 75 MISG 30.01F BANGOR CLOUDY 34 26 72 NE5 30.07F GREENVILLE N/A 29 21 72 E3 30.00F MILLINOCKET FAIR 27 23 85 CALM 30.10F HOULTON FAIR 24 22 91 CALM 30.10S PRESQUE ISLE FAIR 19 17 92 CALM 30.10F FRENCHVILLE FAIR 28 22 78 S5 30.07F CARIBOU FAIR 27 22 81 E3 30.09F $$ NHZ002-005-008-009-011-012-014-170000- NEW HAMPSHIRE CITY SKY/WX TMP DP RH WIND PRES REMARKS PORTSMOUTH CLOUDY 40 34 78 NE9 29.96F ROCHESTER CLOUDY 36 29 75 N8 29.98F NASHUA CLOUDY 38 33 82 N8 29.96S MANCHESTER CLOUDY 38 30 73 NE9 29.95F CONCORD CLOUDY 36 29 75 NE8 29.98F LACONIA CLOUDY 35 26 69 NE7 29.99F PLYMOUTH MOCLDY 34 26 74 CALM 29.99S BERLIN FAIR 30 25 81 CALM 29.97F WHITEFIELD FAIR 36 22 56 SE3 29.95F JAFFREY CLOUDY 34 31 88 VRB5 29.92S KEENE CLOUDY 36 31 82 VRB7 29.95S LEBANON CLOUDY 34 27 75 N3 29.98S MT WASHINGTON MOCLDY 23 -6 28 E38 N/A WCI 4 $$ VTZ005-007-008-170000- VERMONT CITY SKY/WX TMP DP RH WIND PRES REMARKS ST JOHNSBURY N/A 32 27 81 MISG 29.96F BURLINGTON FLURRIES 35 27 72 CALM 29.99F $$ MAZ007-012-024-CTZ003-RIZ002-NYZ038-NYZ072-170000- SOUTHERN NEW ENGLAND AND NY CITY SKY/WX TMP DP RH WIND PRES REMARKS BOSTON RAIN 43 37 79 NE18G26 29.92F WORCESTER RAIN 34 32 92 NE12G18 29.86F NANTUCKET LGT RAIN 44 43 96 NE21G31 29.75F PROVIDENCE LGT RAIN 40 38 93 NE15 29.86F FOG HARTFORD RAIN 37 34 89 N12 29.88F FOG ALBANY DRIZZLE 36 32 85 N6 29.95F NEW YORK CITY RAIN 40 37 89 N14 29.81S FOG $$ ANZ081-ANZ082-ANZ150-NHZ014-MEZ023>029-170000- COASTAL MARINE OBSERVATIONS STATION/POSITION TIME TEMP WIND PRES WAVE AIR SEA DIR/SP/G HT/PER (UTC) (F) (DEG/KT/KT) (MB) (FT/S) MOUNT DESERT ROC 2300 40 40/ 26/ 28 1016.2F MATINICUS ROCK 2200 41 50/ 24/ 28 1015.7F ISLE OF SHOALS 2200 42 60/ 25/ 26 1013.9F JEFFREYS LEDGE 2208 47 N/A 7/ 6 CASHES LEDGE BUO 2250 42 47 1014.4F 7/ 6 $$ .............KEY.............. WCI - WIND CHILL TC - TEMPERATURE IN CELSIUS VSB - VISIBILITY IN MILES HX - HEAT INDEX FAIR- INDICATES FEW OR NO CLOUDS BELOW 12,000 FT, WITH NO SIGNIFICANT WEATHER AND/OR OBSTRUCTIONS TO VISIBILITY.

USA.gov is the U.S. government's official web portal to all federal, state and local government web resources and services.